Wetbulb
69.33 70.29 66.62 63.59 54.58 52.78 46.47 51.58 56.76 55.70 56.32 62.53 62.87 61.02 60.41 61.37 58.55 53.17 66.49 69.30 70.70 71.46 73.45 74.42 75.96 75.35 74.87 74.80 74.47 74.68 74.71 74.53 74.44 74.34 74.28 74.34 74.16 74.11 74.31 74.50 74.69 74.44 74.76 74.73 74.82 74.64 74.39 74.20 74.22
66.08 66.65 64.45 60.54 50.93 47.12 46.09 54.31 53.90 57.22 60.21 64.22 62.68 63.03 61.86 60.72 65.22 64.73 66.24 69.52 70.90 71.50 71.25 73.43 75.91 75.61 74.84 74.52 74.91 74.88 74.63 74.52 74.16 74.31 74.23 74.05 74.31 74.28 73.98 74.47 74.35 74.25 74.46 74.57 74.55 74.13 73.80 73.42 73.50
66.68 67.80 59.83 55.39 49.50 46.38 47.05 54.75 55.66 59.24 62.09 62.12 60.42 62.82 62.11 60.82 65.51 65.97 68.95 70.17 70.41 70.02 71.63 73.41 75.91 75.61 74.90 74.49 74.76 74.81 74.60 74.17 74.13 74.33 74.42 74.47 74.58 74.52 74.60 74.90 74.77 74.17 73.80 74.19 74.26 73.93 73.54 72.64 72.68
63.32 61.68 58.96 53.21 48.86 53.42 52.52 55.97 57.23 57.68 62.21 63.29 62.98 61.10 63.81 66.92 65.59 66.59 70.62 70.70 68.78 69.50 72.00 75.34 76.04 75.59 75.43 74.41 74.75 74.88 74.37 74.21 74.00 74.24 74.62 74.81 74.51 74.90 75.11 75.23 75.18 74.44 73.56 73.43 74.00 74.46 73.06 73.10 73.45
62.77 59.42 52.89 50.75 52.38 55.14 55.92 56.76 57.43 57.47 61.50 61.88 63.01 60.94 60.96 65.17 67.30 67.79 69.41 70.77 68.99 71.07 72.52 74.38 75.96 75.76 75.61 74.74 74.75 74.83 74.50 74.15 74.34 74.58 74.42 74.66 74.29 74.39 74.63 75.13 75.15 73.83 73.33 73.64 74.05 73.66 71.93 71.62 71.97
52.73 57.33 50.18 47.16 53.07 57.10 56.30 56.92 59.65 58.77 60.41 61.05 60.52 60.97 61.71 66.87 67.38 67.68 69.02 71.23 72.26 71.12 72.20 73.46 75.51 75.84 75.49 75.26 75.18 74.88 74.48 74.43 74.29 74.28 74.08 74.14 73.78 73.62 74.08 74.54 74.11 72.81 72.73 72.89 73.00 72.68 71.72 71.40 71.89
50.63 53.46 50.06 52.33 51.94 52.96 57.11 58.08 58.48 58.50 59.84 60.38 62.85 58.80 62.32 65.18 67.11 67.70 67.52 72.33 71.86 70.63 70.83 71.17 72.86 74.46 75.56 75.41 75.24 75.04 74.66 74.41 74.43 73.77 73.85 74.25 73.52 73.78 74.34 74.42 72.76 71.61 70.82 71.42 72.16 72.28 72.23 71.54 71.71
53.50 56.00 52.30 53.17 52.26 51.77 58.95 56.67 58.28 57.31 57.97 63.26 65.17 59.36 59.39 64.41 66.93 66.84 66.94 69.88 69.36 69.33 69.52 70.33 71.06 72.16 72.28 72.97 75.51 75.11 74.89 74.51 74.39 74.29 74.64 74.61 73.89 73.51 73.35 73.11 71.94 71.28 70.38 70.05 71.00 72.49 72.36 72.24 72.09
57.21 51.51 49.98 52.44 52.62 53.85 58.83 54.65 59.16 61.25 59.16 60.90 62.16 63.86 65.53 67.29 67.17 65.19 64.76 64.94 68.63 69.24 68.80 68.71 69.70 70.36 70.95 71.34 73.41 74.99 74.66 69.26 67.22 67.21 68.74 69.19 70.78 67.38 69.78 71.29 71.22 71.63 70.60 70.87 71.32 72.14 72.33 72.36 72.10
52.57 50.90 52.03 55.64 55.63 54.78 57.78 56.57 57.80 56.89 57.93 58.69 61.46 65.75 67.16 66.98 64.82 63.66 63.58 63.37 63.70 67.37 68.14 68.35 69.01 68.65 69.87 71.29 71.24 71.07 69.16 67.69 65.71 66.06 67.52 67.82 69.28 67.31 68.49 70.18 72.92 71.84 72.01 71.91 70.87 71.36 70.74 67.58 62.30
52.88 48.72 54.38 57.00 57.24 58.34 58.20 57.93 59.75 56.11 54.66 57.89 59.73 63.17 64.91 64.90 64.08 62.63 64.82 63.93 64.73 63.97 67.14 67.67 69.21 68.95 68.97 69.86 71.20 70.14 67.87 65.56 66.48 67.33 67.80 67.30 69.17 67.21 64.98 63.48 63.37 60.85 66.36 59.81 60.94 58.84 58.02 57.49 58.34
47.54 51.46 52.26 53.12 56.72 58.14 57.06 59.75 58.10 58.29 57.91 60.71 62.04 64.66 64.47 63.89 63.64 63.83 62.67 63.87 64.02 65.84 66.94 67.57 68.62 68.94 69.46 70.77 69.51 68.82 65.98 64.25 65.66 66.52 67.86 67.31 67.99 64.95 63.34 62.67 59.50 59.15 59.03 58.30 57.57 56.89 57.08 58.37 58.17
52.37 51.33 51.94 53.73 52.36 55.33 60.46 59.21 58.75 59.15 61.39 61.85 62.61 65.57 64.34 64.93 64.82 64.12 63.34 64.28 66.13 66.25 67.75 67.59 69.64 69.38 70.19 70.38 70.10 68.21 66.90 64.73 66.25 64.56 65.96 67.45 65.49 64.00 63.87 61.50 60.51 58.94 59.44 58.09 57.22 56.98 56.82 56.91 57.41
52.36 51.58 51.03 51.86 51.58 54.13 58.19 57.63 58.50 59.53 61.47 61.89 62.20 64.56 64.06 63.96 63.79 64.69 64.78 64.05 67.86 67.89 68.57 69.52 70.68 71.07 70.98 71.16 70.67 69.58 67.08 65.37 66.64 66.86 68.63 66.53 65.46 64.06 61.99 60.57 60.01 59.62 58.87 58.34 57.39 56.76 55.98 55.39 55.26
51.53 47.85 51.87 53.14 51.95 53.61 57.81 53.75 54.48 58.98 60.52 59.50 61.37 61.65 60.38 60.40 63.31 65.16 66.29 68.17 68.60 68.98 70.90 70.13 71.67 72.19 70.56 69.40 68.06 68.84 66.94 67.80 67.46 66.25 65.74 65.38 65.05 62.08 62.06 59.51 59.17 59.67 58.96 58.84 57.81 57.04 56.05 54.90 55.51
50.30 51.04 47.38 53.55 54.93 54.84 53.56 48.41 55.44 58.01 57.17 58.29 60.42 61.91 62.61 63.49 65.08 66.15 67.79 68.48 69.44 70.70 69.77 69.69 72.10 69.54 68.36 67.42 67.08 67.58 66.17 66.02 65.85 65.76 65.34 66.48 64.94 63.62 61.68 60.53 59.73 60.54 58.73 57.99 56.92 55.59 54.39 53.83 53.21
51.12 46.77 49.27 51.89 56.13 53.58 50.47 48.27 56.63 58.48 57.69 57.45 59.68 60.06 60.75 61.61 64.58 66.24 68.45 67.02 70.19 70.28 69.85 68.75 67.67 68.19 67.32 66.57 67.04 67.20 65.42 65.22 63.72 61.03 64.66 64.28 64.06 61.81 61.21 60.08 59.99 60.77 57.82 56.54 56.46 55.00 54.08 53.08 53.02
45.94 47.02 48.19 49.47 53.47 52.35 49.57 49.49 54.47 56.47 57.28 57.71 58.98 59.70 60.43 60.26 61.64 64.43 67.53 67.82 70.35 70.77 69.70 68.84 68.09 67.50 67.60 68.17 66.44 66.47 65.37 63.60 61.85 62.00 60.40 64.93 63.04 63.06 60.23 59.43 59.48 58.48 56.73 56.21 55.74 54.29 54.36 53.56 52.63
49.50 50.17 50.84 52.28 54.20 51.35 49.38 49.05 51.97 55.14 54.94 55.08 55.82 56.88 60.26 59.97 64.59 66.74 64.76 66.64 70.03 69.78 69.24 69.10 68.62 68.19 67.48 66.45 65.23 65.49 64.15 63.97 62.92 63.80 62.51 64.68 63.73 62.48 60.45 59.69 58.67 57.42 56.05 55.06 53.51 53.78 51.93 51.38 52.46
49.52 49.30 48.41 50.89 53.31 49.94 49.45 49.03 54.05 56.44 56.47 57.71 58.31 61.29 61.87 62.19 61.39 65.10 63.04 63.25 66.14 67.23 68.35 68.17 68.74 69.02 68.13 67.34 66.94 67.30 66.53 65.57 64.66 63.60 64.02 63.58 62.08 61.73 61.36 59.58 57.87 56.98 53.90 52.62 52.63 51.67 50.80 50.70 50.74
49.46 47.90 47.83 47.71 49.93 50.14 49.70 49.71 52.94 55.92 58.26 58.80 60.70 60.48 64.19 63.35 63.90 61.31 63.18 61.87 65.39 59.91 60.62 61.86 68.69 69.23 69.01 68.39 66.43 67.58 67.39 66.46 64.35 61.82 61.25 62.13 62.08 61.92 60.34 59.34 57.79 54.95 53.36 52.26 51.50 51.37 50.54 48.63 50.27
45.63 51.11 50.20 49.70 47.47 42.27 51.97 41.85 50.18 51.96 52.70 55.95 56.61 56.79 61.32 61.80 60.68 61.75 60.05 61.33 63.67 59.70 61.09 62.68 69.40 68.35 69.06 68.00 66.78 64.56 63.07 61.75 60.64 58.67 60.81 58.78 59.61 60.48 58.92 56.99 55.37 54.66 53.08 52.16 52.64 53.21 51.11 49.93 48.15
50.51 53.73 51.79 51.34 47.24 46.03 49.13 44.45 47.98 52.23 50.82 52.57 55.48 56.74 57.73 61.82 63.04 62.87 62.71 62.38 61.72 62.53 65.10 66.35 64.22 68.09 69.02 68.00 65.93 64.77 62.69 60.43 59.43 59.22 58.09 57.94 59.78 59.08 57.17 57.08 55.01 53.47 52.77 52.69 52.23 51.48 50.54 50.63 49.28
55.38 52.86 52.03 50.17 46.55 42.82 46.49 46.78 46.24 45.50 50.07 52.80 55.79 54.50 54.67 58.35 58.94 59.93 61.05 62.58 61.35 61.87 62.18 65.81 64.70 67.89 67.90 66.84 66.55 65.52 62.79 59.79 58.66 59.00 58.29 56.78 56.54 56.44 56.84 56.87 54.26 53.41 53.13 52.16 51.92 51.30 50.51 50.68 51.76
52.94 47.80 40.27 39.37 41.53 40.54 48.62 46.86 44.44 51.69 54.11 53.59 52.65 54.23 56.26 59.32 58.94 58.50 57.99 59.41 60.32 60.32 60.66 62.72 63.47 66.54 67.01 67.17 66.14 63.93 60.49 59.26 57.63 56.61 56.08 54.83 55.05 55.24 55.41 55.93 55.30 53.44 52.63 52.94 53.82 50.88 52.31 50.25 51.95
50.59 48.08 41.56 35.23 37.57 39.10 48.42 43.82 45.78 53.45 55.17 55.06 55.23 55.92 57.38 57.38 57.83 58.14 58.95 58.57 58.72 59.28 61.56 59.14 63.78 64.09 65.90 66.29 61.06 60.43 59.65 58.04 57.32 56.78 57.40 55.49 54.58 54.32 56.47 54.06 54.69 53.44 54.54 54.60 52.90 51.96 51.94 52.51 52.37
50.93 45.17 49.38 44.44 45.26 40.82 42.70 46.71 51.53 53.72 54.27 54.57 54.78 56.09 55.23 55.86 57.58 58.13 57.99 57.61 58.82 57.95 57.10 58.86 58.82 59.84 60.51 60.46 58.85 57.40 57.15 57.52 56.37 57.00 55.66 54.89 55.49 55.87 54.60 54.01 52.14 53.65 54.26 52.97 49.96 51.11 52.48 51.44 51.36
51.69 53.60 44.96 43.81 35.81 34.29 40.81 42.18 42.52 48.23 51.64 53.03 53.53 53.95 54.03 55.91 57.54 58.25 58.39 59.03 59.26 58.93 58.38 59.53 59.47 57.04 57.33 58.07 58.06 57.89 57.02 57.52 56.48 55.05 53.62 54.68 54.71 53.47 51.88 51.94 53.11 52.47 50.75 51.12 51.81 52.43 51.40 51.24 49.95
50.47 48.49 48.43 47.28 43.20 36.52 36.07 40.26 48.89 47.99 51.99 51.72 52.91 55.44 54.91 55.16 55.68 56.30 58.69 59.82 59.17 58.79 58.85 57.96 57.12 56.70 56.45 57.14 56.70 56.23 55.71 55.75 54.71 54.58 53.96 52.40 53.33 53.15 53.06 52.20 49.99 50.09 50.79 51.49 52.13 51.37 51.52 49.75 48.98
51.83 51.34 49.51 42.50 42.59 43.54 42.10 40.06 52.27 52.32 52.03 53.53 54.07 54.95 55.96 55.76 55.05 55.65 57.46 59.38 58.55 57.42 56.30 56.64 56.91 56.60 56.32 56.43 55.63 55.04 54.44 53.76 53.42 51.85 51.85 52.96 50.06 49.73 48.85 48.78 50.98 50.43 51.22 51.59 51.60 50.98 50.68 50.50 50.56
MSLP
1010.48 1010.94 1010.64 1010.83 1011.64 1011.53 1010.18 1009.76 1008.74 1008.80 1008.86 1009.44 1010.24 1011.08 1011.96 1012.62 1013.12 1014.06 1014.03 1014.17 1014.68 1015.60 1016.06 1016.34 1016.64 1016.84 1017.11 1017.33 1017.56 1017.73 1017.94 1018.11 1018.25 1018.34 1018.42 1018.36 1018.30 1018.28 1018.19 1018.08 1018.08 1017.94 1017.82 1017.64 1017.51 1017.40 1017.32 1017.16 1017.00
1009.72 1010.63 1010.64 1010.46 1011.70 1011.69 1010.16 1008.95 1008.62 1008.38 1008.60 1009.54 1010.06 1010.70 1011.50 1011.87 1012.07 1012.96 1013.93 1014.14 1014.42 1015.33 1015.88 1016.33 1016.66 1016.92 1017.14 1017.41 1017.63 1017.82 1018.04 1018.27 1018.45 1018.55 1018.55 1018.42 1018.44 1018.42 1018.32 1018.17 1018.04 1017.98 1017.85 1017.76 1017.58 1017.39 1017.28 1017.17 1017.06
1009.83 1009.78 1010.75 1012.03 1012.91 1012.34 1009.63 1008.69 1008.23 1008.28 1008.41 1008.95 1009.94 1010.45 1010.96 1011.39 1011.79 1012.26 1013.20 1013.89 1014.29 1015.09 1015.66 1016.24 1016.54 1016.85 1017.13 1017.39 1017.76 1017.99 1018.16 1018.34 1018.49 1018.56 1018.61 1018.60 1018.62 1018.50 1018.36 1018.36 1018.18 1017.98 1017.86 1017.77 1017.64 1017.45 1017.31 1017.12 1017.08
1009.42 1010.26 1011.92 1013.20 1013.52 1011.25 1008.92 1008.03 1007.88 1008.03 1008.81 1009.29 1009.79 1010.73 1010.91 1011.12 1011.54 1011.94 1013.15 1013.52 1014.11 1014.84 1015.32 1015.82 1016.30 1016.74 1017.08 1017.35 1017.58 1017.96 1018.14 1018.32 1018.46 1018.56 1018.69 1018.72 1018.82 1018.72 1018.64 1018.49 1018.32 1018.11 1017.90 1017.80 1017.69 1017.48 1017.33 1017.19 1016.95
1009.23 1009.70 1012.26 1013.95 1012.80 1009.84 1008.19 1007.65 1007.54 1008.34 1009.14 1009.62 1010.04 1011.15 1011.57 1011.47 1011.45 1011.74 1012.68 1013.27 1013.86 1014.94 1015.32 1015.66 1016.03 1016.44 1016.79 1017.16 1017.54 1017.92 1018.26 1018.30 1018.42 1018.53 1018.66 1018.58 1018.65 1018.57 1018.51 1018.46 1018.33 1018.10 1017.77 1017.65 1017.58 1017.40 1017.12 1016.98 1016.79
1008.98 1010.28 1011.96 1013.24 1012.66 1009.71 1008.35 1007.56 1007.60 1008.72 1009.25 1009.94 1010.24 1011.04 1011.78 1011.68 1011.79 1011.82 1012.13 1012.75 1013.36 1014.54 1015.30 1015.77 1015.98 1016.26 1016.53 1016.96 1017.37 1017.68 1017.91 1018.16 1018.44 1018.59 1018.67 1018.57 1018.38 1018.17 1018.19 1018.16 1018.13 1017.99 1017.70 1017.59 1017.50 1017.33 1017.15 1016.80 1016.65
1008.56 1009.61 1011.38 1013.03 1012.33 1010.12 1009.59 1008.05 1008.13 1008.56 1008.72 1009.32 1009.88 1010.95 1011.68 1011.79 1011.87 1011.87 1012.18 1012.96 1013.64 1014.28 1014.94 1015.37 1015.60 1015.94 1016.32 1016.80 1017.27 1017.50 1017.72 1018.06 1018.45 1018.58 1018.44 1018.39 1018.38 1018.42 1018.29 1017.99 1017.90 1017.77 1017.60 1017.46 1017.38 1017.24 1017.08 1016.80 1016.47
1007.32 1008.98 1010.87 1012.13 1011.28 1011.66 1010.53 1008.40 1007.76 1008.22 1008.64 1008.62 1009.23 1010.56 1011.32 1011.41 1011.61 1011.93 1012.28 1013.11 1013.65 1014.09 1014.39 1014.76 1015.06 1015.46 1016.15 1016.65 1016.90 1017.10 1017.81 1018.24 1018.14 1018.02 1018.46 1019.04 1018.52 1018.51 1018.18 1017.97 1017.89 1017.67 1017.53 1017.36 1017.34 1017.23 1017.02 1016.85 1016.51
1006.43 1008.02 1009.03 1009.57 1010.15 1009.60 1009.87 1008.77 1008.35 1007.63 1008.20 1008.65 1008.78 1009.68 1010.42 1010.96 1011.57 1012.10 1012.34 1012.43 1013.41 1013.64 1013.77 1014.14 1014.56 1015.13 1015.75 1016.36 1016.54 1017.35 1017.60 1017.40 1017.89 1018.14 1018.35 1019.09 1018.86 1018.79 1018.00 1017.94 1017.95 1017.69 1017.61 1017.38 1017.34 1017.07 1016.91 1016.72 1016.57
1006.35 1007.01 1007.33 1007.30 1007.64 1008.09 1008.55 1008.67 1008.60 1008.20 1008.01 1008.71 1009.30 1009.79 1010.33 1010.76 1011.59 1012.18 1012.56 1012.72 1012.97 1013.41 1013.68 1014.00 1014.31 1014.70 1015.34 1015.72 1016.71 1017.26 1017.35 1017.54 1017.58 1017.65 1017.63 1018.11 1018.33 1018.16 1017.64 1017.83 1017.81 1017.81 1017.48 1017.55 1017.44 1017.20 1016.90 1016.79 1016.64
1005.24 1005.51 1005.89 1006.08 1006.65 1007.02 1007.28 1007.86 1008.08 1008.63 1008.86 1008.39 1009.24 1009.54 1010.14 1010.58 1011.13 1012.21 1012.47 1012.70 1012.44 1012.56 1013.08 1013.60 1013.92 1014.32 1014.70 1015.58 1016.70 1017.16 1017.46 1017.72 1017.83 1017.59 1016.52 1017.69 1018.74 1017.80 1017.67 1017.63 1017.76 1017.76 1017.45 1017.58 1017.49 1017.38 1017.15 1017.00 1016.68
1004.70 1004.61 1004.69 1005.23 1005.66 1006.45 1007.34 1008.19 1008.99 1009.38 1009.50 1008.60 1009.06 1009.53 1010.13 1010.70 1011.22 1011.95 1012.34 1012.68 1012.91 1012.49 1012.38 1012.65 1013.15 1013.50 1013.94 1015.34 1016.34 1016.84 1017.34 1017.68 1017.72 1017.78 1018.17 1018.34 1018.19 1017.57 1017.62 1017.71 1017.72 1017.68 1017.64 1017.81 1017.72 1017.57 1017.18 1017.06 1016.58
1004.52 1004.58 1004.31 1004.52 1004.77 1006.05 1006.86 1007.55 1007.96 1008.10 1008.52 1009.09 1009.41 1012.12 1012.25 1012.19 1013.64 1014.92 1013.53 1012.82 1013.24 1012.57 1012.72 1012.67 1013.09 1013.60 1013.83 1014.36 1015.82 1016.82 1016.94 1017.27 1017.41 1017.94 1018.27 1018.15 1017.55 1017.68 1017.70 1017.74 1017.75 1017.94 1017.94 1017.98 1017.80 1017.60 1017.49 1017.17 1016.76
1004.30 1004.32 1004.44 1004.45 1004.79 1005.52 1006.62 1008.16 1007.92 1007.11 1007.02 1008.44 1009.51 1010.96 1011.65 1012.28 1012.63 1015.24 1016.54 1013.68 1013.28 1012.45 1012.74 1012.71 1013.08 1013.64 1013.69 1014.38 1014.67 1015.80 1016.64 1016.83 1017.25 1017.55 1017.71 1017.64 1017.37 1017.28 1017.48 1017.88 1018.18 1018.11 1017.96 1017.74 1017.67 1017.65 1017.51 1017.41 1017.12
1004.52 1004.83 1005.10 1005.08 1004.90 1005.99 1006.39 1008.20 1007.68 1006.73 1007.08 1008.05 1009.91 1010.53 1012.29 1013.85 1014.94 1016.71 1016.23 1012.61 1012.37 1012.71 1012.76 1013.11 1013.18 1013.52 1014.23 1014.62 1014.84 1015.19 1015.74 1016.14 1016.55 1016.74 1016.82 1016.85 1016.96 1017.22 1017.59 1017.83 1017.73 1017.84 1017.58 1017.48 1017.51 1017.50 1017.54 1017.38 1017.05
1005.28 1005.72 1006.36 1005.61 1005.20 1005.17 1005.45 1006.92 1007.54 1007.11 1007.52 1008.97 1009.66 1011.00 1012.12 1013.58 1014.19 1013.73 1014.33 1012.84 1012.52 1012.68 1012.93 1013.49 1013.42 1013.84 1014.25 1014.66 1014.84 1015.35 1015.52 1015.72 1015.90 1016.10 1016.30 1016.47 1016.62 1016.82 1016.96 1017.15 1017.32 1017.44 1017.46 1017.36 1017.56 1017.72 1017.46 1017.23 1017.09
1006.72 1006.73 1006.83 1006.73 1005.48 1005.44 1005.78 1006.72 1006.98 1006.69 1007.46 1008.85 1009.89 1010.46 1011.81 1013.22 1015.02 1015.00 1015.89 1015.82 1012.60 1012.89 1013.62 1014.06 1013.96 1014.30 1014.62 1014.69 1014.76 1015.41 1015.51 1015.50 1015.57 1015.69 1016.08 1016.16 1015.88 1016.21 1016.45 1016.86 1016.91 1017.02 1017.21 1017.21 1017.54 1017.38 1017.21 1017.19 1017.00
1007.02 1006.84 1007.62 1007.43 1006.90 1005.91 1006.19 1006.92 1006.82 1007.10 1007.56 1008.98 1010.22 1011.24 1012.69 1014.42 1014.57 1013.80 1015.00 1014.40 1013.13 1013.63 1014.08 1014.08 1014.34 1015.18 1015.38 1015.08 1014.89 1015.33 1015.86 1015.68 1015.30 1015.34 1015.98 1015.89 1015.77 1015.85 1016.15 1016.32 1016.52 1016.75 1016.98 1017.29 1017.29 1017.18 1017.15 1017.26 1017.08
1006.15 1006.70 1007.51 1007.55 1006.61 1006.35 1006.60 1007.00 1007.23 1007.88 1008.18 1009.12 1010.57 1011.88 1013.39 1014.68 1014.00 1013.63 1015.42 1014.10 1013.80 1014.24 1014.48 1014.62 1014.93 1015.46 1015.76 1015.51 1015.14 1015.30 1015.99 1015.92 1015.70 1015.22 1015.36 1015.44 1015.49 1015.51 1015.68 1015.96 1016.30 1016.48 1016.92 1017.02 1017.02 1017.13 1017.36 1017.31 1017.00
1006.36 1006.77 1007.26 1006.90 1006.65 1006.91 1007.11 1007.49 1008.60 1009.32 1009.64 1009.28 1009.85 1011.57 1012.72 1014.06 1014.04 1014.27 1014.55 1014.30 1016.97 1017.53 1014.89 1016.74 1015.99 1015.45 1015.62 1015.48 1015.01 1014.81 1015.00 1015.46 1015.52 1015.01 1014.92 1015.09 1015.07 1015.12 1015.50 1015.98 1016.18 1016.32 1016.57 1016.88 1017.10 1017.28 1017.43 1017.46 1017.24
1006.59 1007.04 1007.27 1007.57 1007.32 1007.26 1007.79 1009.43 1010.20 1010.55 1010.38 1009.87 1009.70 1011.48 1011.98 1012.35 1013.49 1013.36 1013.39 1013.77 1016.03 1016.87 1017.65 1018.56 1015.59 1015.25 1015.57 1015.86 1015.36 1014.91 1014.75 1015.44 1015.58 1015.23 1015.00 1014.94 1015.01 1014.95 1015.15 1015.28 1015.66 1016.07 1016.21 1016.81 1017.00 1017.11 1017.32 1017.51 1017.29
1006.63 1007.05 1007.48 1007.96 1008.39 1008.71 1009.16 1011.41 1011.64 1011.38 1011.88 1011.61 1011.15 1011.04 1011.28 1012.22 1012.92 1012.96 1013.05 1015.26 1016.98 1018.78 1018.18 1017.18 1016.56 1016.02 1015.32 1015.56 1015.53 1015.50 1015.84 1016.19 1016.20 1016.04 1015.97 1015.79 1015.52 1015.44 1015.30 1015.53 1015.76 1016.19 1016.40 1016.50 1016.60 1016.87 1017.05 1017.22 1017.49
1006.99 1007.31 1007.94 1008.28 1008.98 1010.00 1010.59 1012.38 1012.84 1012.60 1012.56 1012.00 1011.43 1011.61 1011.53 1011.85 1012.26 1013.11 1015.75 1017.32 1017.48 1017.42 1017.71 1017.81 1017.22 1015.23 1015.35 1014.83 1015.13 1015.66 1016.11 1016.30 1016.04 1015.96 1015.78 1015.87 1016.06 1016.04 1016.16 1015.91 1016.08 1016.47 1016.35 1016.31 1016.52 1016.74 1016.80 1016.98 1017.17
1007.17 1008.07 1008.46 1008.68 1009.99 1011.88 1012.76 1013.21 1014.16 1013.06 1012.29 1012.22 1011.94 1011.13 1010.93 1012.40 1014.36 1015.24 1016.26 1016.52 1016.23 1014.68 1015.09 1015.66 1016.33 1015.34 1014.46 1014.91 1015.54 1015.09 1015.46 1015.82 1016.02 1016.13 1016.53 1016.56 1016.44 1016.34 1016.14 1016.13 1016.14 1016.14 1016.38 1016.37 1016.32 1016.32 1016.51 1016.64 1016.66
1008.53 1009.90 1011.24 1012.11 1013.38 1013.94 1013.54 1014.04 1014.79 1012.82 1011.77 1011.80 1011.73 1011.87 1012.08 1013.07 1014.39 1015.75 1016.34 1016.00 1015.60 1015.24 1014.90 1014.50 1014.69 1014.76 1014.63 1014.58 1014.91 1015.12 1015.70 1015.89 1016.28 1016.60 1016.78 1016.91 1016.80 1016.68 1016.55 1016.55 1016.37 1016.44 1016.24 1016.10 1015.96 1016.05 1016.23 1016.33 1016.28
1010.39 1011.68 1013.27 1014.13 1014.50 1014.50 1013.82 1014.63 1014.05 1012.93 1012.14 1011.94 1011.87 1012.35 1013.02 1013.76 1014.55 1015.24 1015.59 1015.30 1015.18 1014.80 1014.48 1014.97 1015.12 1014.71 1014.60 1014.33 1015.22 1015.56 1016.00 1016.29 1016.52 1016.64 1016.83 1017.00 1016.95 1016.77 1016.68 1016.66 1016.46 1016.32 1016.17 1016.05 1015.90 1015.94 1015.83 1015.87 1015.78
1011.93 1013.50 1014.08 1014.24 1014.43 1015.10 1015.45 1014.91 1013.76 1013.51 1013.07 1012.89 1013.02 1013.25 1013.86 1014.52 1015.42 1015.48 1015.68 1015.99 1016.25 1016.11 1015.96 1015.11 1015.34 1015.18 1015.27 1015.93 1016.27 1016.44 1016.44 1016.56 1016.87 1017.08 1017.09 1017.12 1017.02 1016.94 1016.79 1016.58 1016.47 1016.30 1016.12 1016.13 1016.02 1015.68 1015.58 1015.54 1015.45
1013.21 1014.33 1014.77 1014.82 1016.10 1016.18 1016.31 1015.70 1015.23 1014.49 1014.32 1014.10 1014.40 1014.66 1015.07 1014.94 1015.27 1015.76 1015.94 1016.08 1016.34 1016.06 1016.31 1016.18 1016.23 1016.51 1016.57 1016.56 1016.64 1016.89 1017.06 1017.23 1017.31 1017.44 1017.57 1017.46 1017.40 1017.17 1016.91 1016.74 1016.63 1016.49 1016.26 1016.05 1015.78 1015.44 1015.30 1015.22 1015.12
1014.26 1015.26 1015.41 1015.36 1015.83 1016.36 1016.70 1016.33 1015.15 1015.12 1015.55 1016.28 1016.55 1016.55 1017.57 1016.42 1016.42 1016.37 1016.20 1016.02 1016.62 1016.31 1016.57 1016.65 1016.56 1016.68 1016.75 1016.98 1017.28 1017.50 1017.64 1017.84 1018.02 1018.17 1018.16 1017.85 1017.79 1017.54 1017.32 1017.12 1016.90 1016.60 1016.30 1015.96 1015.70 1015.29 1015.03 1014.95 1014.82
1014.01 1014.29 1015.22 1015.86 1016.31 1016.30 1016.42 1016.58 1015.46 1016.15 1017.01 1017.17 1018.16 1018.62 1018.83 1018.35 1017.08 1016.79 1016.58 1016.93 1017.12 1017.18 1017.07 1017.06 1017.19 1017.30 1017.29 1017.71 1017.84 1018.20 1018.50 1018.56 1018.62 1018.54 1018.32 1018.23 1018.05 1017.80 1017.56 1017.18 1016.86 1016.58 1016.29 1015.92 1015.69 1015.28 1015.03 1014.85 1014.63
Wind_Speed
7 7 3 3 4 4 5 7 12 10 5 11 14 7 9 11 6 5 6 18 19 14 11 12 13 13 12 10 9 7 6 5 5 5 4 5 5 5 5 5 5 6 6 7 8 8 9 9 10
4 9 3 3 4 3 1 8 9 10 7 17 20 17 11 8 6 12 12 18 19 15 9 9 13 12 12 10 8 7 6 4 3 3 3 4 3 3 4 4 4 5 6 6 6 7 8 9 9
1 5 5 5 2 5 6 8 8 10 14 22 18 13 8 12 11 5 20 20 18 14 13 11 14 12 11 10 7 6 6 4 3 2 2 3 3 3 4 4 5 6 8 8 8 8 8 7 7
2 3 6 3 11 18 7 10 12 9 18 19 14 10 12 15 6 8 22 21 18 16 15 16 16 13 12 11 10 7 6 4 2 0 1 2 3 2 2 2 3 4 5 6 6 7 8 7 8
2 2 6 8 20 4 7 10 11 14 18 19 16 14 9 8 11 12 18 18 18 14 12 14 18 15 14 12 11 8 6 5 3 2 3 2 4 3 3 1 1 1 4 4 5 4 4 7 8
3 3 4 3 5 7 6 7 21 21 21 16 14 10 5 9 6 6 9 19 18 16 12 11 17 16 15 13 12 10 9 7 4 3 4 5 7 7 6 6 6 2 3 3 3 5 7 10 8
5 5 3 10 7 6 10 10 15 15 17 8 15 10 8 10 10 7 7 17 16 15 14 11 11 14 16 13 11 10 9 6 2 4 7 8 9 7 7 9 8 6 8 5 5 7 8 11 12
4 8 9 10 15 9 14 4 8 7 4 10 15 7 11 11 13 8 8 16 17 15 15 14 12 11 9 8 14 13 8 4 2 3 9 12 11 9 9 11 8 8 7 7 7 9 10 12 14
14 4 3 11 17 10 15 5 3 5 9 0 9 10 13 17 13 7 7 7 15 13 15 13 13 12 10 9 11 9 12 9 2 6 14 16 9 7 9 9 9 10 8 9 8 10 11 13 12
4 6 11 8 7 9 8 7 2 0 4 3 12 16 16 16 10 9 6 8 9 15 14 12 12 12 13 10 8 8 8 3 4 6 7 9 12 11 8 6 11 9 7 8 9 8 9 7 4
10 3 8 7 5 11 14 9 6 6 4 7 15 19 16 13 12 9 7 3 8 6 8 10 15 9 12 7 8 5 3 3 3 5 9 7 9 2 3 3 2 2 5 2 5 6 4 7 4
5 4 6 6 9 9 9 8 5 3 8 5 9 16 13 15 14 9 7 6 6 7 8 7 7 7 7 11 9 6 5 4 4 5 9 8 6 2 4 3 4 4 3 5 4 4 6 7 7
2 4 2 6 2 11 15 12 14 9 10 7 3 10 6 9 13 17 5 8 8 6 7 7 8 6 5 5 10 8 6 7 5 6 10 10 3 3 4 3 4 3 3 3 4 5 5 6 7
2 6 4 4 4 8 18 12 11 13 14 10 9 27 20 11 9 16 22 10 9 7 6 8 8 7 6 4 5 8 7 8 6 5 7 2 3 4 4 2 2 3 2 3 3 5 4 4 4
3 3 8 7 3 8 16 2 8 7 1 6 14 16 15 13 20 26 25 9 9 7 8 8 8 8 7 6 4 3 7 8 8 5 7 7 5 4 4 2 1 1 2 3 4 4 4 4 5
5 7 8 10 8 3 8 8 7 10 5 10 10 7 16 21 20 13 22 12 6 8 8 8 7 8 7 5 4 4 5 5 5 4 3 5 5 3 4 3 1 1 1 2 2 1 3 3 4
6 3 4 11 11 5 7 2 11 11 8 7 9 10 10 3 15 16 19 27 10 9 8 6 7 6 6 5 3 4 6 4 4 3 4 6 6 2 3 3 1 2 1 2 1 2 2 3 4
7 6 5 1 11 5 7 2 6 6 5 11 14 11 5 7 17 15 25 18 9 9 7 7 6 6 5 3 1 4 3 1 2 2 4 6 5 5 5 2 2 1 2 2 2 2 3 2 3
8 9 13 12 4 2 5 5 9 7 10 11 6 7 10 12 15 20 12 8 8 7 7 8 6 2 1 1 1 2 4 3 4 3 3 6 5 5 4 2 3 1 2 2 3 2 3 3 4
6 8 6 7 10 7 8 10 13 16 8 8 10 14 15 12 15 8 5 5 19 23 18 12 5 5 4 3 3 3 3 3 4 4 5 5 6 3 3 5 4 3 3 3 3 2 2 2 3
5 7 6 5 7 9 4 15 9 7 10 12 7 5 17 20 14 8 8 7 14 25 11 20 15 8 6 4 2 2 3 3 4 3 3 2 3 5 3 6 4 4 4 3 0 1 2 2 3
6 7 6 8 5 4 11 2 8 4 7 4 10 7 12 7 7 8 10 11 11 12 10 20 15 6 4 2 3 1 1 1 2 2 3 2 4 5 6 6 4 5 3 0 1 1 1 1 3
3 8 7 7 7 7 9 7 8 2 5 4 7 9 11 13 17 11 12 13 12 7 3 5 25 3 4 5 2 2 3 1 1 3 6 8 7 8 6 4 6 2 0 1 3 2 1 1 2
4 8 11 6 6 5 7 6 6 4 2 4 10 8 11 10 15 18 13 13 12 12 11 11 8 10 8 5 4 5 4 4 4 5 5 4 3 3 5 5 2 2 3 2 1 1 1 3 4
12 9 6 8 5 4 6 9 8 6 4 6 8 10 13 17 15 14 9 7 5 5 6 2 11 7 5 8 8 3 6 7 7 5 3 5 4 3 5 5 5 3 3 3 3 1 2 4 4
6 7 5 2 1 3 5 1 4 7 8 10 9 13 18 13 12 8 7 8 7 8 4 5 5 8 4 6 6 7 9 5 4 4 4 4 3 2 4 5 3 4 6 5 4 2 3 5 4
6 9 6 2 4 6 4 6 7 5 7 8 11 12 10 7 8 8 5 1 2 2 6 7 4 12 14 13 10 8 7 7 6 7 4 3 4 6 6 6 6 5 4 4 6 3 5 4 4
10 5 8 5 3 3 3 4 3 9 7 9 9 9 9 14 12 9 7 8 6 6 6 14 15 9 7 8 6 5 6 7 6 6 6 6 7 7 6 6 6 6 6 7 6 6 4 4 4
7 4 3 2 5 3 2 3 6 2 9 12 20 22 16 15 15 10 11 11 8 8 9 7 8 8 7 6 7 8 7 8 9 9 8 7 7 7 7 6 5 6 6 7 8 6 5 4 5
3 6 3 5 4 2 3 5 7 13 12 17 20 21 24 8 7 7 9 8 7 8 7 8 8 7 8 10 7 8 10 8 7 5 6 6 6 6 5 6 5 6 7 7 8 6 5 5 5
Wind_Direction
163 179 199 236 30 55 82 82 93 94 60 91 112 121 162 176 165 195 144 127 125 131 139 136 136 133 131 127 122 118 112 100 91 82 73 65 56 46 43 39 23 23 20 18 16 13 7 2 358
200 180 277 325 6 354 85 112 123 120 117 100 102 114 121 120 127 113 116 130 129 137 138 134 138 138 136 132 130 129 120 107 93 71 50 53 46 36 28 23 22 16 15 13 13 12 4 357 351
214 241 75 43 25 284 119 109 98 125 124 102 97 104 114 120 131 97 130 136 135 143 134 147 145 146 146 144 144 145 136 127 104 62 20 12 1 13 17 4 12 17 13 6 1 1 358 358 349
326 39 43 59 302 289 143 129 111 104 102 105 114 74 55 129 105 141 145 144 141 145 145 153 153 155 156 159 158 161 150 146 163 243 333 334 319 308 304 342 11 10 19 5 353 357 353 341 334
174 92 81 118 288 206 95 110 117 91 107 103 102 102 100 89 128 152 148 149 139 138 147 153 157 162 164 167 164 161 169 172 195 225 256 268 261 246 223 184 252 359 26 344 348 340 308 311 311
334 110 42 114 104 280 66 81 79 96 101 107 105 114 126 129 101 150 142 137 135 139 149 158 160 166 170 172 169 170 184 188 198 225 255 255 241 221 197 194 207 201 246 263 288 298 303 304 302
193 168 137 356 264 306 35 55 106 116 125 132 139 129 159 142 152 182 134 131 137 148 149 161 169 175 178 174 173 182 188 175 197 267 258 247 249 241 218 214 202 209 245 255 278 282 282 284 288
287 103 165 158 250 69 13 33 74 102 44 143 135 144 163 159 158 171 134 147 153 154 160 170 173 176 170 175 179 189 163 137 45 319 317 300 266 240 234 235 222 228 254 280 291 293 289 289 297
281 96 124 176 210 135 198 106 355 177 99 89 169 139 152 152 158 144 162 180 163 165 168 177 173 179 171 173 192 159 130 133 110 42 10 344 293 261 242 236 230 246 257 290 299 287 294 293 298
234 137 195 203 196 142 137 117 249 23 105 115 113 125 146 151 144 161 180 193 174 167 184 174 173 181 178 177 131 139 142 358 356 44 33 305 285 257 223 239 215 253 287 301 329 321 330 351 313
274 162 163 215 183 135 154 137 179 99 295 159 152 147 160 153 146 119 155 190 179 184 143 159 162 170 167 154 138 145 139 96 60 119 186 259 293 352 78 71 36 349 49 360 19 359 345 331 334
4 46 62 128 147 148 134 97 60 91 291 202 153 159 162 160 131 153 120 233 259 188 152 145 145 119 108 131 145 152 155 152 186 204 198 223 257 73 42 36 21 14 360 25 6 343 341 324 322
312 141 156 114 209 113 132 139 124 178 272 248 162 122 3 65 64 2 215 200 242 151 159 166 133 139 142 121 149 154 169 182 187 178 217 218 175 81 61 27 31 344 33 16 354 343 329 323 341
37 19 359 108 306 121 128 130 149 228 189 122 271 176 150 150 122 332 301 215 183 172 140 138 141 154 144 124 96 155 170 185 170 203 215 140 99 96 90 16 321 31 27 351 352 326 307 355 3
353 299 334 323 193 113 110 156 228 234 233 150 122 134 127 133 154 207 271 144 143 133 126 121 129 109 95 95 102 60 130 143 156 158 158 168 145 148 154 189 48 72 360 360 338 332 17 4 340
331 45 29 302 318 213 128 240 236 252 232 110 123 130 142 179 173 79 335 302 118 105 98 67 88 107 106 99 99 100 113 121 139 136 126 96 106 162 185 157 116 257 342 346 347 28 338 321 305
43 219 234 331 325 315 60 261 225 230 185 147 149 136 129 216 69 56 264 272 140 121 101 86 90 123 125 111 82 112 118 131 145 162 100 153 171 213 158 146 161 52 13 348 57 320 330 305 313
238 236 128 264 293 356 11 102 236 237 183 145 165 165 161 113 128 166 233 261 121 108 127 120 77 85 85 96 231 99 70 283 240 305 145 180 211 204 157 134 78 94 25 20 1 358 352 321 312
330 55 148 218 239 17 300 296 358 97 58 64 190 187 108 140 169 191 257 341 97 122 103 76 97 138 86 286 228 227 159 243 290 284 240 222 216 157 142 130 154 167 119 70 13 45 347 322 327
338 35 22 353 342 354 311 287 62 51 27 54 20 95 136 141 183 193 85 60 30 4 57 7 284 195 208 221 237 157 163 177 218 230 244 223 172 135 202 170 204 133 104 30 54 28 326 314 341
53 49 354 329 323 329 35 34 31 10 42 39 347 123 147 173 165 156 128 129 93 93 89 293 269 209 209 236 339 27 36 4 6 345 45 65 137 207 231 196 135 136 120 129 265 29 49 322 313
55 5 347 325 15 266 46 216 5 50 52 20 280 288 201 164 146 169 158 99 105 93 188 210 249 233 188 169 18 9 131 333 354 46 44 333 4 4 46 96 106 96 91 350 141 89 336 291 281
352 353 302 278 264 72 355 71 302 60 313 329 274 309 272 141 170 175 80 101 143 131 209 31 333 265 139 133 156 93 67 145 353 3 3 19 9 41 40 75 104 111 259 49 95 345 296 219 229
346 1 329 352 65 46 317 109 276 10 307 256 254 282 9 146 85 93 114 145 153 165 157 191 256 229 185 159 218 194 159 98 41 16 43 1 2 349 35 35 7 326 39 54 323 272 262 262 260
49 41 348 16 31 239 9 57 231 269 18 29 40 41 64 87 105 102 123 123 112 158 202 122 224 228 175 187 217 196 94 63 54 64 41 8 360 2 354 356 7 15 351 330 311 312 293 274 258
33 86 128 325 18 243 354 13 259 237 338 23 33 42 68 93 115 125 134 132 150 202 242 1 59 267 155 238 83 63 50 52 46 43 31 20 357 331 18 16 11 353 338 346 329 297 265 250 253
347 38 273 37 326 70 306 315 343 326 31 35 38 48 52 92 106 136 161 122 286 310 304 350 2 31 32 56 58 48 51 59 43 42 31 23 17 17 17 359 350 334 355 307 299 304 274 262 265
105 193 8 3 46 7 248 85 311 349 356 37 40 35 44 59 78 65 62 35 10 20 18 51 68 71 71 76 79 73 57 56 53 36 45 32 21 10 2 359 359 355 343 338 312 281 283 289 279
11 2 276 168 124 171 7 272 226 3 38 47 35 45 32 44 48 61 68 82 53 44 58 77 65 67 63 77 60 56 41 37 44 41 32 23 5 0 1 11 350 345 328 329 312 298 302 294 284
198 198 165 121 310 356 145 273 360 72 48 52 51 39 3 352 39 45 46 77 63 42 39 49 52 56 46 74 65 52 55 52 46 29 20 14 352 353 344 339 331 333 328 315 307 321 344 345 326